Location: Newark
(34.9500°N, 139.9667°E)
Time: 19:08:45
(UTC+00:00)

Vanguard 1 Rocket - Pass Details

Date: 11 December 2019
Orbit: 650 x 4226 km, 34.3° (Epoch: 17 January)

Event Time Altitude Azimuth Distance (km) Brightness Sun altitude
Rises 15:53:35 0° 281° (WNW) 5,511 - -68.8°
Reaches altitude 10° 15:58:02 10° 279° (W) 3,941 - -68.0°
Maximum altitude 16:06:56 60° 202° (SSW) 1,173 - -66.4°
Drops below altitude 10° 16:12:04 10° 123° (ESE) 2,319 - -65.4°
Sets 16:14:04 0° 119° (ESE) 3,099 - -65.0°
